Location: Bratislava
(48.1500°N, 17.1170°E)
Time: 12:16:54
(UTC+02:00)

N. Korean satellite - Visible Passes

Search period start: 22 October 2017 00:00
Search period end: 31 October 2017 23:00
Orbit: 459 x 517 km, 97.2° (Epoch: 21 October)

Date Brightness Start Highest point End Pass type
(mag) Time Alt. Az. Time Alt. Az. Time Alt. Az.
22 Oct 7.6 19:09:19 10° S 19:12:42 47° W 19:16:04 10° NNW visible
23 Oct 10.5 06:35:01 10° ENE 06:35:50 11° E 06:36:39 10° ESE visible
23 Oct 6.4 18:45:49 10° SSE 18:49:19 87° E 18:52:48 10° NNW visible
24 Oct 6.8 18:22:41 10° SE 18:26:00 44° ENE 18:29:19 10° N visible
24 Oct 9.9 19:57:57 10° WSW 19:59:47 14° W 20:01:38 10° WNW visible
25 Oct 9.0 19:33:21 10° SSW 19:36:15 24° W 19:39:09 10° NW visible
26 Oct 9.7 06:56:51 10° NE 06:59:29 20° E 07:02:08 10° SE visible
26 Oct 7.6 19:09:26 10° S 19:12:47 46° W 19:16:09 10° NNW visible
27 Oct 10.4 06:34:55 10° ENE 06:35:55 11° E 06:36:56 10° ESE visible
27 Oct 6.4 18:45:55 10° SSE 18:49:23 88° E 18:52:52 10° NNW visible
28 Oct 6.8 18:22:45 10° SE 18:26:04 44° ENE 18:29:22 10° N visible
28 Oct 9.9 19:58:04 10° WSW 19:59:51 13° W 20:01:38 10° WNW visible
29 Oct 9.0 18:33:26 10° SSW 18:36:18 24° W 18:39:10 10° NW visible
30 Oct 9.7 05:56:51 10° NE 05:59:33 20° E 06:02:16 10° SE visible
30 Oct 7.6 18:09:29 10° S 18:12:49 45° W 18:16:10 10° NNW visible
31 Oct 10.3 05:34:48 10° ENE 05:35:58 11° E 05:37:08 10° ESE visible
31 Oct 6.4 17:45:57 10° SSE 17:49:24 89° ENE 17:52:52 10° NNW visible
